Weather in Brazzaville

Congo     4°12′21″S   15°14′33″E
temp.,
°C
wind,
m/s
gust,
m/s
humid.,
%
clouds,
%
prec.,
mm/h
press.,
hPa
HPBL,
m
1 august, sun
sun101:00+25w245389 0.0 1013223
04:00+23wsw23595 0.0 1013223
07:00+23sw246466 0.0 1016393
10:00+29sw234684 0.0 1016972
13:00+35ssw112996 0.0 10121607
16:00+36e11220 0.0 10092028
19:00+32w242688 0.0 1010363
22:00+29wsw2538100 0.0 1013207
2 august, mon
mon201:00+27wsw254691 0.0 1014377
04:00+24wsw476245 0.0 1015586
07:00+23wsw366829 0.0 1017495
10:00+28wsw34475 0.0 10171107
13:00+34sw23305 0.0 10121875
16:00+36s322583 0.0 10093085
19:00+32wsw4632100 0.0 1011430
22:00+29wsw2640100 0.0 1013247
3 august, tue
tue301:00+27wsw374690 0.0 1013316
04:00+24sw255884 0.0 1013321
07:00+23wsw376399 0.0 1016543
10:00+29wsw354338 0.0 10161180
13:00+34sw34284 0.0 10121900
16:00+36ssw322419 0.0 10092917
19:00+32wsw472969 0.0 1010431
22:00+28w3636100 0.0 1013253
4 august, wed
wed401:00+26sw484840 0.0 1014527
04:00+22wsw37635 0.0 1015419
07:00+22w36655 0.0 1017532
10:00+28wsw35405 0.0 10171122
13:00+34wsw34265 0.0 10131669
16:00+35sw32235 0.0 10102469
19:00+31sw35285 0.0 1012362
22:00+28w36355 0.0 1014188
5 august, thu
thu501:00+25wsw49422 0.0 1014447
04:00+22wsw37591 0.0 1015443
07:00+21w37610 0.0 1018570
10:00+28wsw35380 0.0 10181161
13:00+33wsw34260 0.0 10131786
16:00+35sw34230 0.0 10112332
19:00+31sw36290 0.0 1013521
22:00+27w25350 0.0 1014186